Total_Precipitation_Accumulation
2.02 2.12 2.47 2.14 1.93 2.08 2.13 2.09 2.64 2.08 1.87 3.68 2.60 1.73 1.39 1.30 1.44 1.61 1.28 0.80 0.46 0.33 0.41 0.74 0.79 1.01 1.12 0.59 0.42 0.46 0.68 1.18 1.01 0.79 0.57 0.83 1.36 1.43 1.38 2.40 1.68 1.64 1.70 2.46
1.85 2.18 2.31 2.08 2.60 2.49 2.85 3.05 2.65 2.93 1.58 1.91 1.09 0.94 1.26 1.41 1.50 1.47 1.08 0.74 0.42 0.26 0.31 0.70 0.41 0.47 0.43 0.27 0.22 0.30 0.52 1.35 1.07 1.02 1.17 1.03 1.46 1.35 1.27 1.26 1.92 2.00 2.27 2.87
1.96 1.89 1.69 1.91 2.45 2.41 3.18 3.81 3.84 4.01 3.11 1.12 0.59 0.90 1.27 1.25 1.18 1.18 0.85 0.81 0.46 0.40 0.30 0.24 0.28 0.19 0.23 0.30 0.37 0.32 0.48 0.79 1.13 1.05 1.22 1.35 1.29 1.09 1.24 1.55 2.35 1.65 2.19 1.75
2.53 1.91 1.48 1.62 1.87 1.82 2.26 3.28 2.64 1.48 1.44 0.65 0.39 1.04 1.52 1.41 1.42 0.94 0.89 1.00 0.54 0.47 0.43 0.18 0.14 0.15 0.21 0.30 0.52 0.56 0.72 0.91 0.72 0.69 0.44 0.70 1.23 1.19 1.16 1.85 1.65 2.10 1.77 1.30
2.97 2.36 1.85 1.89 2.23 2.62 3.02 2.95 1.97 0.97 0.57 0.28 0.37 1.09 1.55 1.50 1.04 1.01 0.94 0.83 0.44 0.53 0.69 0.52 0.32 0.25 0.30 0.38 0.41 0.59 0.59 0.89 0.60 0.70 0.51 0.82 0.86 0.63 0.88 1.00 1.24 1.41 1.15 1.43
2.83 2.25 2.18 2.58 3.67 4.18 4.00 2.68 1.87 1.70 1.69 0.91 0.88 0.86 0.96 1.04 1.10 1.39 0.85 0.72 0.77 0.56 0.35 0.39 0.39 0.39 0.31 0.40 0.49 0.43 0.57 0.75 0.92 1.20 0.63 0.81 1.08 0.75 0.56 0.73 0.93 0.94 1.09 1.17
2.75 1.88 1.81 2.09 2.55 2.96 3.04 2.64 2.45 3.03 2.70 1.55 1.20 1.04 1.04 1.23 1.26 1.55 0.98 0.82 1.05 0.67 0.40 0.46 0.35 0.23 0.22 0.23 0.28 0.37 0.72 0.69 1.10 1.18 0.64 1.13 0.63 0.45 0.58 0.60 0.77 0.63 0.64 0.58
2.12 1.67 1.76 1.94 2.18 2.93 2.83 2.56 2.82 3.05 2.69 1.54 1.11 0.95 1.03 1.18 1.19 1.34 1.11 0.77 0.71 0.59 0.61 0.64 0.49 0.34 0.31 0.18 0.11 0.17 0.35 0.70 1.33 1.14 0.88 0.56 0.39 0.37 0.39 0.42 0.44 0.46 0.47 0.35
1.75 1.51 1.58 1.93 2.07 2.24 1.91 1.95 2.43 2.86 3.15 2.02 1.33 1.14 0.95 1.22 1.25 1.15 0.85 0.62 0.41 0.49 0.74 0.78 0.74 0.55 0.32 0.36 0.30 0.16 0.24 0.42 1.15 1.04 0.96 0.46 0.20 0.14 0.22 0.50 0.75 0.36 0.32 0.30
1.76 1.65 1.42 1.34 1.40 1.53 1.56 1.56 1.76 2.50 2.99 1.64 1.22 1.16 1.09 1.07 1.32 1.35 0.85 0.61 0.48 0.52 0.82 0.73 0.43 0.35 0.26 0.29 0.22 0.17 0.33 0.63 1.17 0.89 1.30 0.50 0.22 0.09 0.19 0.55 0.56 0.23 0.26 0.33
1.72 1.62 1.41 1.26 1.26 1.55 1.39 1.20 1.49 2.05 2.56 1.66 1.00 0.95 1.02 0.84 0.91 1.56 1.19 0.82 0.74 0.79 1.16 0.93 0.55 0.53 0.37 0.30 0.26 0.17 0.23 0.44 0.58 0.67 1.00 0.90 0.25 0.13 0.36 0.49 0.26 0.17 0.14 0.17
1.71 1.74 1.69 1.77 1.69 1.77 1.69 1.34 1.10 1.34 2.07 1.54 0.67 0.59 0.57 0.59 0.73 1.25 1.23 0.95 0.77 0.83 1.13 0.95 0.64 0.48 0.36 0.37 0.51 0.26 0.35 0.46 0.47 0.58 0.74 0.73 0.49 0.56 0.53 0.42 0.31 0.23 0.20 0.12
1.43 1.53 1.58 1.37 1.25 1.45 1.78 1.26 1.19 1.36 1.64 1.19 0.67 0.46 0.33 0.25 0.41 0.92 1.57 1.23 1.18 1.28 1.15 1.22 0.88 0.73 0.51 0.36 0.39 0.40 0.36 0.38 0.49 0.53 0.56 0.42 0.48 0.36 0.39 0.42 0.43 0.27 0.12 0.08
1.11 1.24 1.26 1.07 0.93 1.11 1.35 0.73 0.75 0.95 1.02 0.90 0.58 0.27 0.26 0.27 0.37 0.62 1.09 1.40 1.14 1.28 1.31 2.17 1.82 1.24 0.60 0.53 0.47 0.31 0.36 0.40 0.57 0.78 0.64 0.58 0.61 0.46 0.40 0.34 0.20 0.09 0.06 0.05
1.15 1.10 0.94 0.78 0.99 1.11 0.87 0.53 0.87 1.07 1.46 1.59 0.59 0.28 0.22 0.11 0.31 0.59 0.86 1.44 1.50 1.71 2.12 2.21 1.91 1.37 1.10 0.99 0.88 1.05 0.87 0.87 0.89 0.99 0.88 0.85 0.83 0.72 0.54 0.35 0.29 0.25 0.19 0.16
0.90 0.89 0.78 0.87 1.24 1.56 0.93 0.86 0.76 0.78 1.12 2.25 0.93 0.33 0.12 0.08 0.33 0.57 0.73 0.92 1.33 1.98 2.23 1.98 1.87 1.61 1.63 1.87 1.32 1.18 0.91 0.93 1.11 1.17 1.16 1.16 1.17 0.87 0.78 0.68 0.60 0.57 0.44 0.46
1.02 1.13 1.10 0.96 1.33 1.20 0.98 0.72 1.12 1.27 1.59 1.95 0.97 0.48 0.16 0.11 0.50 0.87 0.92 0.81 1.56 2.12 2.55 2.05 1.49 1.29 1.42 2.01 1.40 1.09 0.91 0.99 1.13 1.10 0.79 0.88 0.84 1.14 1.08 1.03 1.16 0.99 0.89 0.86
1.40 1.55 1.65 1.69 1.86 1.65 1.07 0.91 1.09 1.23 2.04 2.06 1.55 0.52 0.21 0.19 0.77 1.33 1.21 1.38 1.59 1.68 1.91 1.59 1.16 1.10 1.36 2.02 1.56 1.01 0.82 0.64 0.60 0.76 0.79 1.13 1.09 0.89 0.85 0.81 0.74 0.60 0.62 0.60
1.94 2.13 2.07 2.08 1.47 0.72 0.50 0.73 1.13 1.34 2.02 2.81 1.64 0.73 0.48 0.27 0.71 1.06 1.34 1.20 1.43 1.19 1.09 1.06 0.91 1.02 1.51 1.61 1.11 0.85 0.79 0.68 0.87 0.73 0.63 0.60 0.52 0.52 0.49 0.43 0.40 0.37 0.41 0.42
2.66 2.34 1.87 1.56 0.81 0.78 1.11 1.69 2.16 2.93 2.34 1.84 1.41 0.43 0.57 0.42 0.60 1.10 1.63 1.96 1.53 1.27 0.97 0.77 1.22 1.68 1.71 1.36 1.04 0.90 0.78 0.74 0.65 0.52 0.41 0.31 0.29 0.30 0.28 0.26 0.26 0.30 0.32 0.30
3.00 2.45 1.80 1.56 1.57 1.73 1.99 2.02 1.87 1.59 1.82 1.04 0.55 0.27 0.55 0.51 1.20 1.52 1.79 2.20 1.54 1.34 0.94 0.99 1.24 1.47 1.31 0.91 0.66 0.59 0.51 0.38 0.29 0.30 0.31 0.26 0.27 0.24 0.19 0.15 0.10 0.12 0.14 0.17
2.00 1.77 2.24 2.44 2.39 2.38 1.92 1.49 1.04 1.25 0.94 0.69 0.57 0.39 0.42 0.52 0.87 1.80 2.19 1.88 1.69 1.32 0.86 1.19 1.07 1.29 0.83 0.49 0.50 0.41 0.22 0.17 0.14 0.11 0.15 0.10 0.10 0.09 0.12 0.13 0.09 0.05 0.06 0.05
3.13 4.27 4.40 3.11 2.56 1.89 1.33 0.86 0.97 0.98 0.70 0.73 0.80 0.71 0.57 0.82 1.19 1.95 2.01 1.88 1.41 0.82 0.96 0.88 0.91 0.77 0.46 0.33 0.25 0.16 0.12 0.09 0.08 0.07 0.06 0.06 0.07 0.07 0.12 0.15 0.09 0.08 0.08 0.05
5.73 5.59 4.53 2.16 1.53 0.70 0.85 0.72 0.64 0.67 0.69 0.75 0.86 0.98 0.98 1.03 1.63 1.74 1.61 1.40 1.25 1.11 0.77 0.80 0.79 0.50 0.34 0.26 0.21 0.20 0.25 0.33 0.33 0.24 0.17 0.15 0.14 0.15 0.11 0.11 0.12 0.15 0.14 0.07
5.96 4.37 2.34 1.04 0.46 0.29 0.43 0.32 0.31 0.41 0.49 0.61 0.79 1.00 0.92 1.08 1.49 1.14 1.01 1.13 0.83 0.60 0.76 0.86 0.59 0.41 0.28 0.28 0.31 0.33 0.35 0.47 0.58 0.59 0.56 0.51 0.44 0.42 0.32 0.16 0.14 0.19 0.18 0.13
5.47 3.55 1.38 0.41 0.22 0.12 0.16 0.23 0.31 0.40 0.59 0.68 0.88 1.03 1.29 1.20 1.06 1.08 0.82 0.75 0.66 0.76 0.82 0.76 0.55 0.49 0.42 0.39 0.31 0.28 0.26 0.23 0.23 0.21 0.22 0.25 0.27 0.32 0.33 0.25 0.20 0.24 0.26 0.24
5.20 1.94 0.40 0.16 0.17 0.20 0.18 0.24 0.27 0.28 0.55 0.73 1.04 1.50 1.08 1.12 1.29 0.91 0.79 1.05 0.91 0.64 0.38 0.39 0.45 0.60 0.59 0.56 0.44 0.36 0.29 0.24 0.19 0.18 0.15 0.16 0.13 0.13 0.14 0.12 0.10 0.14 0.26 0.36